TimeEST,TemperatureF,Dew PointF,Humidity,Sea Level PressureIn,VisibilityMPH,Wind Direction,Wind SpeedMPH,Gust SpeedMPH,PrecipitationIn,Events,Conditions,WindDirDegrees,DateUTC
12:25 AM,57.2,55.4,94,30.10,3.0,Calm,Calm,-,N/A,,Overcast,0,2012-12-03 05:25:00
12:38 AM,57.2,57.2,100,30.11,2.5,Calm,Calm,-,N/A,,Overcast,0,2012-12-03 05:38:00
12:49 AM,57.2,57.2,100,30.10,1.8,Calm,Calm,-,N/A,,Overcast,0,2012-12-03 05:49:00
12:53 AM,57.0,57.0,100,30.10,1.8,Calm,Calm,-,N/A,,Overcast,0,2012-12-03 05:53:00
1:10 AM,57.2,57.2,100,30.10,0.8,Calm,Calm,-,N/A,,Overcast,0,2012-12-03 06:10:00
1:39 AM,57.2,57.2,100,30.08,0.5,South,3.5,-,N/A,Fog,Fog,170,2012-12-03 06:39:00
1:53 AM,57.9,57.0,97,30.08,0.5,South,5.8,-,N/A,Fog,Fog,170,2012-12-03 06:53:00
2:23 AM,57.2,57.2,100,30.09,0.8,South,3.5,-,0.00,,Mist,170,2012-12-03 07:23:00
2:41 AM,57.2,57.2,100,30.09,0.5,Calm,Calm,-,0.00,Fog,Fog,0,2012-12-03 07:41:00
2:53 AM,57.9,57.9,100,30.09,0.8,South,3.5,-,0.00,,Mist,180,2012-12-03 07:53:00
3:11 AM,57.2,57.2,100,30.09,0.8,South,3.5,-,N/A,,Overcast,190,2012-12-03 08:11:00
3:19 AM,57.2,57.2,100,30.09,1.2,South,3.5,-,N/A,,Overcast,190,2012-12-03 08:19:00
3:41 AM,57.2,57.2,100,30.08,2.0,South,3.5,-,N/A,,Overcast,180,2012-12-03 08:41:00
3:48 AM,57.2,57.2,100,30.08,2.5,South,3.5,-,N/A,,Overcast,180,2012-12-03 08:48:00
3:53 AM,57.9,57.9,100,30.08,3.0,South,3.5,-,N/A,,Overcast,170,2012-12-03 08:53:00
4:53 AM,57.9,57.9,100,30.07,2.5,South,3.5,-,N/A,,Overcast,190,2012-12-03 09:53:00
5:14 AM,57.2,57.2,100,30.08,3.0,South,3.5,-,0.00,Rain,Light Rain,180,2012-12-03 10:14:00
5:22 AM,57.2,57.2,100,30.08,2.0,South,4.6,-,0.00,Rain,Light Rain,180,2012-12-03 10:22:00
5:53 AM,57.9,57.9,100,30.07,1.5,South,3.5,-,0.01,,Overcast,180,2012-12-03 10:53:00
6:06 AM,59.0,57.2,94,30.07,1.8,South,4.6,-,N/A,,Overcast,180,2012-12-03 11:06:00
6:43 AM,59.0,57.2,94,30.07,1.5,SSE,4.6,-,N/A,,Overcast,160,2012-12-03 11:43:00
6:53 AM,59.0,59.0,100,30.08,1.8,South,4.6,-,N/A,,Overcast,180,2012-12-03 11:53:00
7:00 AM,59.0,59.0,100,30.08,2.0,South,4.6,-,N/A,,Overcast,170,2012-12-03 12:00:00
7:25 AM,59.0,59.0,100,30.08,3.0,South,4.6,-,N/A,,Overcast,170,2012-12-03 12:25:00
7:53 AM,59.0,59.0,100,30.08,4.0,South,6.9,-,N/A,,Overcast,180,2012-12-03 12:53:00
8:53 AM,59.0,59.0,100,30.08,3.0,South,4.6,-,N/A,,Overcast,170,2012-12-03 13:53:00
9:53 AM,60.1,59.0,96,30.08,5.0,South,5.8,-,N/A,,Overcast,170,2012-12-03 14:53:00
10:53 AM,61.0,59.0,93,30.06,8.0,South,6.9,-,N/A,,Overcast,180,2012-12-03 15:53:00
11:40 AM,62.6,59.0,88,30.05,10.0,South,9.2,-,N/A,,Overcast,180,2012-12-03 16:40:00
11:53 AM,63.0,59.0,87,30.04,10.0,SSW,6.9,-,N/A,,Overcast,200,2012-12-03 16:53:00
12:53 PM,66.0,59.0,78,30.01,10.0,SSW,6.9,-,N/A,,Overcast,210,2012-12-03 17:53:00
1:53 PM,66.9,57.9,73,30.01,10.0,SSW,12.7,20.7,N/A,,Overcast,200,2012-12-03 18:53:00
2:53 PM,68.0,57.9,70,29.98,10.0,South,12.7,19.6,0.01,,Mostly Cloudy,190,2012-12-03 19:53:00
3:53 PM,68.0,57.0,68,29.98,10.0,SSW,12.7,23.0,N/A,,Scattered Clouds,200,2012-12-03 20:53:00
4:53 PM,68.0,55.0,63,29.99,10.0,SSW,13.8,24.2,N/A,,Clear,200,2012-12-03 21:53:00
5:53 PM,66.9,54.0,63,29.98,10.0,South,12.7,21.9,N/A,,Clear,190,2012-12-03 22:53:00
6:53 PM,66.0,54.0,65,29.98,10.0,South,10.4,19.6,N/A,,Clear,190,2012-12-03 23:53:00
7:53 PM,64.9,55.0,70,29.99,10.0,South,10.4,20.7,N/A,,Clear,190,2012-12-04 00:53:00
8:53 PM,64.0,54.0,70,30.00,10.0,SSW,8.1,-,N/A,,Clear,200,2012-12-04 01:53:00
9:53 PM,63.0,54.0,72,30.00,10.0,SSW,8.1,-,N/A,,Overcast,210,2012-12-04 02:53:00
10:53 PM,63.0,53.1,70,30.00,10.0,South,8.1,-,N/A,,Mostly Cloudy,190,2012-12-04 03:53:00
11:53 PM,62.1,51.1,67,30.00,10.0,South,6.9,-,N/A,,Clear,180,2012-12-04 04:53:00